Location: San Vito
(41.8833°N, 12.9833°E)
Time: 00:24:14
(UTC+00:00)

ATLAS 2AS CENTAUR R/B - Pass Details

Date: 17 November 2019
Orbit: 926 x 1286 km, 63.7° (Epoch: 09 December)

Event Time Altitude Azimuth Distance (km) Brightness Sun altitude
Exits shadow 03:31:59 17° 340° (NNW) 2,667 4.5 -27.4°
Maximum altitude 03:37:29 42° 43° (NE) 1,621 3.8 -26.4°
Drops below altitude 10° 03:44:10 10° 113° (ESE) 2,961 5.9 -25.1°
Sets 03:46:54 0° 120° (ESE) 3,861 6.6 -24.6°
